STARLINK-2194, 47771

Orbit data source: Space-Track

STARLINK-2194, 47771 is a payload satellite owned by SpaceX/Seattle (US) in LEO that was launched on Thu, 04 Mar 2021 UTC via an FALCON 9 launch vehicle from the Air Force Eastern Test Range (AFETR). Payload-class satellites include a variety of spacecraft equipped with specific instruments for various scientific and technological missions. These include communications satellites like Starlink; space stations such as the ISS; scientific satellites like the Hubble; Earth observation satellites from companies like Planet Labs, Umbra, and HawkEye 360; GPS; miniature CubeSats for education and research; and military/defense satellites.

Loading next visibility...
Identifier
47771, 2021-017BB
Orbit
LEO
Country
Flag of USUS
Related business
Manufacturer
SpaceX/Seattle
Mission
Operational Commercial Communications
Bus & Motor
STARLINK, Unknown motor
Mass
260 kg wet, ~248 kg dry
Launch date (UTC)
2021-03-04 (5 years ago)
Launch vehicle
FALCON 9
Launch site
Air Force Eastern Test Range (AFETR)
Object type
Payload
Rocket body
Debris
Shape & HBR
Box + 1 Pan, 10.1 m
Radar Cross Section
13.562 m², Large (>1 m²)

Expand to show TLE details & history
Last TLE update: 2 days ago

TLE from 2 days ago
0 STARLINK-2194
1 47771U 21017BB  26235.03881319  .00002397  00000-0  88957-4 0  9990
2 47771  53.1594 149.7425 0001419 104.9078 255.2081 15.31712729303367
Epoch: 2026-08-23T00:55Z
TLE epoch observation values (Epoch: 2026-08-23T00:55:53.459Z)
Latitude
Longitude
164.42916°
Altitude
471.851 km
Speed
7.631 km/s
True Right ascension
09h 58m 58s
True Declination
0° 00' 00"
Sunlit
Object was in daylight at epoch
Visualization orbit readout
Latitude
Unknown
Longitude
Unknown
Altitude
Unknown
Speed
Unknown
Apparent Right ascension
Unknown
Apparent Declination
Unknown
Sunlit
N/A
Visualization observer readout
Local Sidereal Time
04:20:28
Azimuth
Unknown
Elevation
Unknown
Doppler factor
Unknown
Orbital elements
Apogee altitude
471.931 km
Perigee altitude
469.987 km
Semi-major axis
6,849.096 km
Eccentricity
0.00014
Inclination
53.1594°
RAAN
149.7425°
Arg. of periapsis
104.9078°
True anomaly
255.19238°
Mean anomaly
255.2081°
Eccentric anomaly
255.20024°
Mean motion
3.82907 °/min
Orbital period
94.02 mins
BSTAR
0.000088957
Loading maneuver chart data...
Computing Atmospheric mass density...

Documentation

Showing up to 5 results
|